Showing default

YAOGAN-43 02A, 60945

Orbit data source: Space-Track

YAOGAN-43 02A, 60945 is a payload satellite owned by PLA GAD (CN) in LEO that was launched on Tue, 03 Sep 2024 UTC via a CHANG ZHENG 4B launch vehicle from the Xichang Space Center, China (XSC). Payloads include a variety of satellites, spacecraft, and rockets equipped with specific instruments for various scientific and technological missions. These include communications satellites like Starlink; space stations such as the ISS; scientific satellites like the Hubble; Earth observation satellites from companies like Planet Labs, Umbra, and HawkEye 360; GPS; miniature CubeSats for education and research; and military/defense satellites.

Loading next visibility...
YAOGAN-43 02A details
Identifier
60945, 2024-156A
Orbit
LEO
Last TLE update8 hours ago
Origin
Flag of CNPLA GAD (CN / PRC)
ManufacturerSAST
MissionOperational spacecraft
Bus & MotorUnknown
Mass~300 kg wet, ~300 kg dry
Launch date (UTC)
2024-09-03 (4 months ago)
Launch vehicle
CHANG ZHENG 4B
Launch site
Xichang Space Center, China (XSC)
Object type
Payload
Rocket body
Debris
Shape & HBRUnknown
Radar Cross SectionLarge (>1 m²)

Expand to show TLE details & history

TLE from 8 hours ago
0 YAOGAN-43 02A
1 60945U 24156A   25014.86223838  .00020219  00000-0  84215-3 0  9991
2 60945  34.9939 217.8413 0004405  25.6458 334.4474 15.22848572 20423
Epoch: 2025-01-14T20:41Z
Definitive object data (Epoch: 2025-01-14T20:41:37.396Z)
Latitude-0.00002°
Longitude152.8726°
Altitude493.428 km
Speed7.622 km/s
True Right ascension14h 31m 21s
True Declination0° 00' 00"
Sunlit
Object was in daylight at TLE epoch
Visualization TLE readout
Latitude34.76733°
Longitude-128.83455°
Altitude495.956 km
Speed7.623 km/s
Apparent Right ascension18h 44m 11s
Apparent Declination0° 58' 08"
Sunlit
Object is in daylight
Visualization observer readout
Local Sidereal Time05:34:16
Azimuth333.374° NNW
Elevation-47.93°
Doppler factor1
Orbital elements
Apogee altitude503.534 km
Perigee altitude497.474 km
Semi-major axis6,878.641 km
Eccentricity0.0004405
Inclination34.9939°
RAAN217.8413°
Arg. of periapsis25.6458°
True anomaly334.42562°
Mean anomaly334.4474°
Eccentric anomaly334.43651°
Mean motion3.80443 °/min
BSTAR0.00084215
Orbital period94.63 mins
Loading maneuver chart data...
Loading historical data...
Loading historical data...
Loading historical data...
Loading historical data...
Loading historical data...
Loading historical data...
Loading historical data...

YAOGAN-43 02A Visibility forecast

Observer location: undefined°, undefined

Span
Click to sort rows by Start time (UTC) header in descending order
Start Az.
Max El. time (UTC)
Max El. Az.
Max El.
End time (UTC)
End Az.
5 mins2025-01-15 17:24:09.050Z206.089° SW2025-01-15 17:26:09.050Z167.79° S21.001°2025-01-15 17:29:09.050Z111.782° ESE
5 mins2025-01-15 19:04:09.050Z226.966° WSW2025-01-15 19:06:09.050Z162.201° S31.142°2025-01-15 19:09:09.050Z109.198° ESE
5 mins2025-01-15 20:43:09.050Z242.151° WSW2025-01-15 20:45:09.050Z195.863° SSW26.799°2025-01-15 20:48:09.050Z133.709° SE
|